Regional Weather Roundup
Issued by NWS

Home | Current Version | Previous Version | Graphics & Text | Print | Product List | Glossary On
Versions: 1 2 3 4 5 6 7 8 9 10 11 12 13 14 15 16 17 18 19 20 21 22 23 24 25 26 27 28 29 30 31 32 33 34 35 36 37 38 39 40 41 42 43 44 45 46 47 48 49 50
000
ASUS43 KIND 041259
RWRIN

WEATHER ROUNDUP FOR INDIANA
NATIONAL WEATHER SERVICE INDIANAPOLIS IN
800 AM EST WED MAR 04 2015

NOTE: "FAIR" INDICATES FEW OR NO CLOUDS BELOW 12,000 FEET WITH NO
SIGNIFICANT WEATHER AND/OR OBSTRUCTIONS TO VISIBILITY.

* - STATION DOES NOT REPORT WEATHER SUCH AS PRECIPITATION OR FOG.

+ - STATION NOT QUALITY CONTROLLED BY THE NATIONAL WEATHER SERVICE.
    USE DATA WITH CAUTION...ESPECIALLY DEWPOINT AND RELATIVE
    HUMIDITY OBSERVATIONS.

INZ001>003-010>013-019-020-041400-
NORTHWEST INDIANA

CITY           SKY/WX    TMP DP  RH WIND       PRES   REMARKS
GARY /AIRPORT/ MOCLDY    25  14  63 W20       30.02R WCI  11
KNOX *+          N/A     30  16  55 NW10      29.97R WCI  21
MONTICELLO +   CLOUDY    28  25  87 NW14      29.99R WCI  17
VALPARAISO     NOT AVBL

$$

LMZ046-743>745-041400-
SOUTHERN LAKE MICHIGAN

STATION/POSITION TIME  TEMP WIND        PRES
                       AIR  DIR/SP/G
                 (UTC) (F)  (DEG/KT/KT) (MB)
MICHIGAN CITY    1200   27  280/ 16/ 18   N/A

$$

INZ004-005-014>016-021>024-041400-
NORTH CENTRAL INDIANA

CITY           SKY/WX    TMP DP  RH WIND       PRES   REMARKS
ELKHART        CLOUDY    30  21  69 W10       29.96R WCI  21
GOSHEN         CLOUDY    29  24  82 W8        29.95R HAZE    WCI  21
PERU/GRISSOM   CLOUDY    28  27  93 W8        29.96R WCI  20
SOUTH BEND     CLOUDY    28  23  81 NW12      29.97R WCI  18
WARSAW +       CLOUDY    30  27  86 W8        29.95R FOG     WCI  23

$$

INZ006>009-017-018-025>027-041400-
NORTHEAST INDIANA

CITY           SKY/WX    TMP DP  RH WIND       PRES   REMARKS
ANGOLA *+      CLOUDY    30  21  69 W3        29.92S
FORT WAYNE     CLOUDY    30  24  78 W6        29.96R WCI  24

$$

INZ028-029-035-036-043>045-051>053-041400-
WEST CENTRAL INDIANA

CITY           SKY/WX    TMP DP  RH WIND       PRES   REMARKS
CRAWFORDSVL +  CLOUDY    26  20  76 NW17G24   29.99S WCI  14
GREENCASTLE +  MOCLDY    32  25  74 NW5       29.99R WCI  27
LAFAYETTE      CLOUDY    26  22  84 NW10      30.01R WCI  16
TERRE HAUTE    CLOUDY    30  26  85 NW14      30.01R WCI  19

$$

INZ030>032-037>040-046>048-054>057-064-065-041400-
CENTRAL INDIANA

CITY           SKY/WX    TMP DP  RH WIND       PRES   REMARKS
CP ATTERBURY + CLOUDY    34  32  93 NW5       29.99R WCI  30
FRANKFORT +    CLOUDY    31  28  88 W8        30.00R FOG     WCI  23
GREENWOOD *+   MOCLDY    32  25  74 NW8       29.98R WCI  25
INDIANAPOLIS   CLOUDY    31  26  82 NW9       29.97R WCI  23
-EAGLE CREEK   PTCLDY    30  26  85 NW8       29.97R WCI  22
KOKOMO *+      MOCLDY    28  27  93 NW10      29.98R WCI  19
MT COMFORT *+  MOCLDY    32  25  74 NW10      29.97R WCI  24
SHELBYVILLE    CLOUDY    35  30  82 NW7       29.96R WCI  29
ZIONSVILLE +   MOCLDY    31  25  80 NW8       29.98R HAZE    WCI  23

$$

INZ033-034-041-042-049-050-058-059-041400-
EAST CENTRAL INDIANA

CITY           SKY/WX    TMP DP  RH WIND       PRES   REMARKS
MUNCIE         CLOUDY    32  28  85 NW10      29.97R FOG     WCI  24

$$

INZ060-061-067>069-081>083-085>088-041400-
SOUTHWEST INDIANA

CITY           SKY/WX    TMP DP  RH WIND       PRES   REMARKS
EVANSVILLE     LGT RAIN  36  32  85 N7        30.01R FOG
HUNTINGBURG *+ CLOUDY    36  30  80 N8        30.00R

$$

INZ062-063-066-070>080-084-089>092-041400-
SOUTH CENTRAL AND SOUTHEAST INDIANA

CITY           SKY/WX    TMP DP  RH WIND       PRES   REMARKS
BLOOMINGTON    CLOUDY    33  29  85 VRB5      29.99R FOG     WCI  29
SEYMOUR +      CLOUDY    36  34  93 N6        29.99R

$$




USA.gov is the U.S. government's official web portal to all federal, state and local government web resources and services.